Regional Weather Roundup
Issued by NWS Sioux Falls, SD

Home | Current Version | Previous Version | Graphics & Text | Print | Product List | Glossary On
Versions: 1 2 3 4 5 6 7 8 9 10 11 12 13 14 15 16 17 18 19 20 21 22 23 24 25 26 27 28 29 30 31 32 33 34 35 36 37 38 39 40 41 42 43 44 45 46 47 48 49 50
000
ASUS43 KFSD 201302
RWRFSD

WEATHER ROUNDUP FOR SE SOUTH DAKOTA/SW MINNESOTA/NW IOWA
NATIONAL WEATHER SERVICE SIOUX FALLS SD
800 AM CDT FRI OCT 20 2017

NOTE: "FAIR" INDICATES FEW OR NO CLOUDS BELOW 12,000 FEET WITH NO
SIGNIFICANT WEATHER AND OR OBSTRUCTIONS TO VISIBILITY.


SDZ038>040-050-052>070-201400-
SOUTHEAST SOUTH DAKOTA

CITY           SKY/WX    TMP DP  RH WIND       PRES   REMARKS
BROOKINGS      CLOUDY    52  47  83 S16       29.78F
CHAMBERLAIN    CLEAR     59  48  68 S12       29.65F
HURON          CLEAR     54  47  77 S16       29.68F
MADISON        FAIR      52  50  93 S14       29.78F
MITCHELL       CLEAR     56  48  74 S14       29.72F
SIOUX FALLS    CLOUDY    57  49  74 S13G23    29.81F
WINNER         FAIR      59  46  62 S22G31    29.64F
YANKTON        CLEAR     59  49  69 S15       29.78F
$$

MNZ071-072-080-081-089-090-097-098-201400-
SOUTHWEST MINNESOTA

CITY           SKY/WX    TMP DP  RH WIND       PRES   REMARKS
FAIRMONT       CLEAR     53  49  86 S13       29.92S
JACKSON        CLOUDY    54  46  76 S13       29.90S
MARSHALL       CLOUDY    58  48  69 S18G25    29.78F
MONTEVIDEO     CLOUDY    55  48  76 S7        29.77S
PIPESTONE      CLOUDY    52  46  82 S12       29.82S
REDWOOD FALLS  CLEAR     58  47  66 S15       29.82F
TRACY          CLEAR     58  50  74 S16G23    29.82F
WORTHINGTON    CLOUDY    56  49  77 S14G20    29.87F
$$

IAZ001>003-012>014-020>022-031-032-NEZ013-014-SDZ071-201400-
NORTHWEST IOWA

CITY           SKY/WX    TMP DP  RH WIND       PRES   REMARKS
CHEROKEE       CLOUDY    55  52  88 S13G18    29.91F
DENISON        PTCLDY    55  52  88 S10G18    29.97S
ESTHERVILLE    CLOUDY    50  49  96 S13       29.92S
LE MARS        MOCLDY    57  52  82 S13       29.87S
ORANGE CITY    CLOUDY    57  54  88 S12G17    29.87F
SHELDON        CLEAR     54  48  82 SE9       29.86F
SIOUX CITY     PTCLDY    54  51  90 S12       29.88F
SPENCER        PTCLDY    54  49  83 S12       29.91S
STORM LAKE     PTCLDY    54  50  87 S13       29.93F
$$

ABBREVIATIONS USED IN REMARKS
   TC - TEMPERATURE IN CELSIUS
  WCI - WIND CHILL INDEX
   HX - HEAT INDEX
  VSB - VISIBILITY





USA.gov is the U.S. government's official web portal to all federal, state and local government web resources and services.